Zurück zum Katalog

THORAD DELTA 1 DEB

AktivSSO
NORAD 8788·DEBRIS·🇺🇸 United States

Gestartet Nov 15, 1974 von Vandenberg Space Force Base

Loading…

Nächste Überflüge (nächste 24 Stunden)

TLE

AktuellSource: Space-Track

Epoche: Sep 14, 2026, 12:29 UTC

1 08788U 74089DQ  26257.52016475  .00000071  00000-0  86839-3 0  9996
2 08788 102.0950 356.3923 0070768 279.6686 147.4899 12.39849576346215

Verfolge THORAD DELTA 1 DEB in Echtzeit mit AllMySat

Download on the App Store